Year,Month,Day,Hour,Minute,Value (Times are PST for windgust in km/hr)
2012,01,26,00,00,9.60
2012,01,26,00,01,8.10
2012,01,26,00,02,6.40
2012,01,26,00,03,4.80
2012,01,26,00,04,8.10
2012,01,26,00,05,9.60
2012,01,26,00,06,9.60
2012,01,26,00,07,9.60
2012,01,26,00,08,8.10
2012,01,26,00,09,8.10
2012,01,26,00,10,8.10
2012,01,26,00,11,4.80
2012,01,26,00,12,4.80
2012,01,26,00,13,6.40
2012,01,26,00,14,8.10
2012,01,26,00,15,8.10
2012,01,26,00,16,8.10
2012,01,26,00,17,8.10
2012,01,26,00,18,6.40
2012,01,26,00,19,9.60
2012,01,26,00,20,8.10
2012,01,26,00,21,8.10
2012,01,26,00,22,9.60
2012,01,26,00,23,8.10
2012,01,26,00,24,9.60
2012,01,26,00,25,8.10
2012,01,26,00,26,6.40
2012,01,26,00,27,6.40
2012,01,26,00,28,6.40
2012,01,26,00,29,4.80
2012,01,26,00,30,4.80
2012,01,26,00,31,3.20
2012,01,26,00,32,3.20
2012,01,26,00,33,4.80
2012,01,26,00,35,3.20
2012,01,26,00,36,4.80
2012,01,26,00,37,3.20
2012,01,26,00,38,3.20
2012,01,26,00,42,1.60
2012,01,26,00,43,3.20
2012,01,26,00,46,1.60
2012,01,26,00,47,4.80
2012,01,26,00,48,6.40
2012,01,26,00,49,3.20
2012,01,26,00,50,3.20
2012,01,26,00,51,4.80
2012,01,26,00,52,4.80
2012,01,26,00,53,1.60
2012,01,26,00,54,4.80
2012,01,26,00,55,4.80
2012,01,26,00,56,8.10
2012,01,26,00,57,9.60
2012,01,26,00,58,6.40
2012,01,26,00,59,4.80
2012,01,26,01,00,8.10
2012,01,26,01,01,6.40
2012,01,26,01,02,11.30
2012,01,26,01,03,14.50
2012,01,26,01,04,14.50
2012,01,26,01,05,14.50
2012,01,26,01,06,14.50
2012,01,26,01,07,14.50
2012,01,26,01,08,8.10
2012,01,26,01,09,19.30
2012,01,26,01,10,14.50
2012,01,26,01,11,16.10
2012,01,26,01,12,14.50
2012,01,26,01,13,8.10
2012,01,26,01,14,16.10
2012,01,26,01,15,9.60
2012,01,26,01,16,11.30
2012,01,26,01,17,9.60
2012,01,26,01,18,9.60
2012,01,26,01,19,11.30
2012,01,26,01,20,11.30
2012,01,26,01,21,9.60
2012,01,26,01,22,19.30
2012,01,26,01,23,24.20
2012,01,26,01,24,32.20
2012,01,26,01,25,24.20
2012,01,26,01,26,19.30
2012,01,26,01,27,16.10
2012,01,26,01,28,30.60
2012,01,26,01,29,33.80
2012,01,26,01,30,53.10
2012,01,26,01,31,37.00
2012,01,26,01,32,35.40
2012,01,26,01,33,24.20
2012,01,26,01,34,43.50
2012,01,26,01,35,20.90
2012,01,26,01,36,37.00
2012,01,26,01,37,45.10
2012,01,26,01,38,37.00
2012,01,26,01,39,46.70
2012,01,26,01,40,35.40
2012,01,26,01,41,43.50
2012,01,26,01,42,51.50
2012,01,26,01,43,53.10
2012,01,26,01,44,59.50
2012,01,26,01,45,43.50
2012,01,26,01,46,46.70
2012,01,26,01,47,48.30
2012,01,26,01,48,45.10
2012,01,26,01,49,45.10
2012,01,26,01,50,64.40
2012,01,26,01,51,56.30
2012,01,26,01,52,64.40
2012,01,26,01,53,53.10
2012,01,26,01,54,45.10
2012,01,26,01,55,53.10
2012,01,26,01,56,45.10
2012,01,26,01,57,48.30
2012,01,26,01,58,41.80
2012,01,26,01,59,45.10
2012,01,26,02,00,62.70
2012,01,26,02,01,45.10
2012,01,26,02,02,56.30
2012,01,26,02,03,78.80
2012,01,26,02,04,74.00
2012,01,26,02,05,75.60
2012,01,26,02,06,46.70
2012,01,26,02,07,40.20
2012,01,26,02,08,41.80
2012,01,26,02,09,53.10
2012,01,26,02,10,48.30
2012,01,26,02,11,56.30
2012,01,26,02,12,61.20
2012,01,26,02,13,40.20
2012,01,26,02,14,53.10
2012,01,26,02,15,54.70
2012,01,26,02,16,54.70
2012,01,26,02,17,48.30
2012,01,26,02,18,64.40
2012,01,26,02,19,48.30
2012,01,26,02,20,40.20
2012,01,26,02,21,69.20
2012,01,26,02,22,46.70
2012,01,26,02,23,40.20
2012,01,26,02,24,78.80
2012,01,26,02,25,70.80
2012,01,26,02,26,54.70
2012,01,26,02,27,49.90
2012,01,26,02,28,43.50
2012,01,26,02,29,53.10
2012,01,26,02,30,35.40
2012,01,26,02,31,53.10
2012,01,26,02,32,53.10
2012,01,26,02,33,53.10
2012,01,26,02,34,38.60
2012,01,26,02,35,53.10
2012,01,26,02,36,72.40
2012,01,26,02,37,54.70
2012,01,26,02,38,46.70
2012,01,26,02,39,64.40
2012,01,26,02,40,54.70
2012,01,26,02,41,51.50
2012,01,26,02,42,59.50
2012,01,26,02,43,46.70
2012,01,26,02,44,45.10
2012,01,26,02,45,46.70
2012,01,26,02,46,43.50
2012,01,26,02,47,45.10
2012,01,26,02,48,49.90
2012,01,26,02,49,43.50
2012,01,26,02,50,41.80
2012,01,26,02,51,41.80
2012,01,26,02,52,37.00
2012,01,26,02,53,51.50
2012,01,26,02,54,51.50
2012,01,26,02,55,46.70
2012,01,26,02,56,41.80
2012,01,26,02,57,43.50
2012,01,26,02,58,48.30
2012,01,26,02,59,53.10
2012,01,26,03,00,32.20
2012,01,26,03,01,32.20
2012,01,26,03,02,29.00
2012,01,26,03,03,51.50
2012,01,26,03,04,53.10
2012,01,26,03,05,41.80
2012,01,26,03,06,46.70
2012,01,26,03,07,45.10
2012,01,26,03,08,45.10
2012,01,26,03,09,41.80
2012,01,26,03,10,53.10
2012,01,26,03,11,40.20
2012,01,26,03,12,25.70
2012,01,26,03,13,45.10
2012,01,26,03,14,29.00
2012,01,26,03,15,24.20
2012,01,26,03,16,59.50
2012,01,26,03,17,49.90
2012,01,26,03,18,32.20
2012,01,26,03,19,45.10
2012,01,26,03,20,46.70
2012,01,26,03,21,33.80
2012,01,26,03,22,35.40
2012,01,26,03,23,29.00
2012,01,26,03,24,30.60
2012,01,26,03,25,27.40
2012,01,26,03,26,51.50
2012,01,26,03,27,45.10
2012,01,26,03,28,24.20
2012,01,26,03,29,35.40
2012,01,26,03,30,41.80
2012,01,26,03,31,45.10
2012,01,26,03,32,33.80
2012,01,26,03,33,41.80
2012,01,26,03,34,38.60
2012,01,26,03,35,43.50
2012,01,26,03,36,35.40
2012,01,26,03,37,29.00
2012,01,26,03,38,24.20
2012,01,26,03,39,22.50
2012,01,26,03,40,25.70
2012,01,26,03,41,27.40
2012,01,26,03,42,16.10
2012,01,26,03,43,22.50
2012,01,26,03,44,22.50
2012,01,26,03,45,24.20
2012,01,26,03,46,32.20
2012,01,26,03,47,19.30
2012,01,26,03,48,8.10
2012,01,26,03,49,17.70
2012,01,26,03,50,22.50
2012,01,26,03,51,20.90
2012,01,26,03,52,25.70
2012,01,26,03,53,27.40
2012,01,26,03,54,29.00
2012,01,26,03,55,27.40
2012,01,26,03,56,27.40
2012,01,26,03,57,32.20
2012,01,26,03,58,30.60
2012,01,26,03,59,20.90
2012,01,26,04,00,20.90
2012,01,26,04,01,20.90
2012,01,26,04,02,20.90
2012,01,26,04,03,19.30
2012,01,26,04,04,32.20
2012,01,26,04,05,32.20
2012,01,26,04,06,20.90
2012,01,26,04,07,20.90
2012,01,26,04,08,19.30
2012,01,26,04,09,29.00
2012,01,26,04,10,19.30
2012,01,26,04,11,24.20
2012,01,26,04,12,16.10
2012,01,26,04,13,17.70
2012,01,26,04,14,24.20
2012,01,26,04,15,17.70
2012,01,26,04,16,22.50
2012,01,26,04,17,27.40
2012,01,26,04,18,22.50
2012,01,26,04,19,25.70
2012,01,26,04,20,24.20
2012,01,26,04,21,22.50
2012,01,26,04,22,27.40
2012,01,26,04,23,19.30
2012,01,26,04,24,14.50
2012,01,26,04,25,14.50
2012,01,26,04,26,17.70
2012,01,26,04,27,19.30
2012,01,26,04,28,16.10
2012,01,26,04,29,19.30
2012,01,26,04,30,17.70
2012,01,26,04,31,24.20
2012,01,26,04,32,24.20
2012,01,26,04,33,22.50
2012,01,26,04,34,24.20
2012,01,26,04,35,22.50
2012,01,26,04,36,25.70
2012,01,26,04,37,20.90
2012,01,26,04,38,16.10
2012,01,26,04,39,20.90
2012,01,26,04,40,20.90
2012,01,26,04,41,25.70
2012,01,26,04,42,22.50
2012,01,26,04,43,17.70
2012,01,26,04,44,19.30
2012,01,26,04,45,20.90
2012,01,26,04,46,24.20
2012,01,26,04,47,16.10
2012,01,26,04,48,24.20
2012,01,26,04,49,29.00
2012,01,26,04,50,30.60
2012,01,26,04,51,22.50
2012,01,26,04,52,20.90
2012,01,26,04,53,30.60
2012,01,26,04,54,24.20
2012,01,26,04,55,24.20
2012,01,26,04,56,27.40
2012,01,26,04,57,20.90
2012,01,26,04,58,29.00
2012,01,26,04,59,20.90
2012,01,26,05,00,22.50
2012,01,26,05,01,29.00
2012,01,26,05,02,24.20
2012,01,26,05,03,29.00
2012,01,26,05,04,20.90
2012,01,26,05,05,27.40
2012,01,26,05,06,25.70
2012,01,26,05,07,25.70
2012,01,26,05,08,16.10
2012,01,26,05,09,17.70
2012,01,26,05,10,20.90
2012,01,26,05,11,27.40
2012,01,26,05,12,22.50
2012,01,26,05,13,19.30
2012,01,26,05,14,25.70
2012,01,26,05,15,22.50
2012,01,26,05,16,27.40
2012,01,26,05,17,24.20
2012,01,26,05,18,24.20
2012,01,26,05,19,24.20
2012,01,26,05,20,19.30
2012,01,26,05,21,20.90
2012,01,26,05,22,32.20
2012,01,26,05,23,22.50
2012,01,26,05,24,16.10
2012,01,26,05,25,22.50
2012,01,26,05,26,22.50
2012,01,26,05,27,22.50
2012,01,26,05,28,25.70
2012,01,26,05,29,24.20
2012,01,26,05,30,17.70
2012,01,26,05,31,16.10
2012,01,26,05,32,17.70
2012,01,26,05,33,24.20
2012,01,26,05,34,19.30
2012,01,26,05,35,19.30
2012,01,26,05,36,14.50
2012,01,26,05,37,22.50
2012,01,26,05,38,12.90
2012,01,26,05,39,20.90
2012,01,26,05,40,16.10
2012,01,26,05,41,17.70
2012,01,26,05,42,17.70
2012,01,26,05,43,25.70
2012,01,26,05,44,12.90
2012,01,26,05,45,12.90
2012,01,26,05,46,16.10
2012,01,26,05,47,19.30
2012,01,26,05,48,17.70
2012,01,26,05,49,24.20
2012,01,26,05,50,17.70
2012,01,26,05,51,17.70
2012,01,26,05,52,20.90
2012,01,26,05,53,20.90
2012,01,26,05,54,22.50
2012,01,26,05,55,22.50
2012,01,26,05,56,9.60
2012,01,26,05,57,17.70
2012,01,26,05,58,22.50
2012,01,26,05,59,16.10
2012,01,26,06,00,14.50
2012,01,26,06,01,9.60
2012,01,26,06,02,14.50
2012,01,26,06,03,16.10
2012,01,26,06,04,14.50
2012,01,26,06,05,17.70
2012,01,26,06,06,17.70
2012,01,26,06,07,14.50
2012,01,26,06,08,16.10
2012,01,26,06,09,16.10
2012,01,26,06,10,14.50
2012,01,26,06,11,11.30
2012,01,26,06,12,14.50
2012,01,26,06,13,16.10
2012,01,26,06,14,17.70
2012,01,26,06,15,19.30
2012,01,26,06,16,12.90
2012,01,26,06,17,20.90
2012,01,26,06,18,19.30
2012,01,26,06,19,19.30
2012,01,26,06,20,14.50
2012,01,26,06,21,25.70
2012,01,26,06,22,9.60
2012,01,26,06,23,9.60
2012,01,26,06,24,17.70
2012,01,26,06,25,17.70
2012,01,26,06,26,20.90
2012,01,26,06,27,17.70
2012,01,26,06,28,25.70
2012,01,26,06,29,25.70
2012,01,26,06,30,16.10
2012,01,26,06,31,19.30
2012,01,26,06,32,17.70
2012,01,26,06,33,14.50
2012,01,26,06,34,16.10
2012,01,26,06,35,20.90
2012,01,26,06,36,19.30
2012,01,26,06,37,24.20
2012,01,26,06,38,22.50
2012,01,26,06,39,22.50
2012,01,26,06,40,24.20
2012,01,26,06,41,20.90
2012,01,26,06,42,20.90
2012,01,26,06,43,24.20
2012,01,26,06,44,11.30
2012,01,26,06,45,22.50
2012,01,26,06,46,17.70
2012,01,26,06,47,19.30
2012,01,26,06,48,20.90
2012,01,26,06,49,19.30
2012,01,26,06,50,29.00
2012,01,26,06,51,24.20
2012,01,26,06,52,20.90
2012,01,26,06,53,17.70
2012,01,26,06,54,19.30
2012,01,26,06,55,20.90
2012,01,26,06,56,22.50
2012,01,26,06,57,19.30
2012,01,26,06,58,20.90
2012,01,26,06,59,27.40
2012,01,26,07,00,20.90
2012,01,26,07,01,25.70
2012,01,26,07,02,20.90
2012,01,26,07,03,24.20
2012,01,26,07,04,25.70
2012,01,26,07,05,22.50
2012,01,26,07,06,20.90
2012,01,26,07,07,25.70
2012,01,26,07,08,25.70
2012,01,26,07,09,20.90
2012,01,26,07,10,25.70
2012,01,26,07,11,25.70
2012,01,26,07,12,20.90
2012,01,26,07,13,22.50
2012,01,26,07,14,20.90
2012,01,26,07,15,19.30
2012,01,26,07,16,17.70
2012,01,26,07,17,22.50
2012,01,26,07,18,24.20
2012,01,26,07,19,24.20
2012,01,26,07,20,24.20
2012,01,26,07,21,16.10
2012,01,26,07,22,17.70
2012,01,26,07,23,24.20
2012,01,26,07,24,24.20
2012,01,26,07,25,22.50
2012,01,26,07,26,30.60
2012,01,26,07,27,32.20
2012,01,26,07,28,33.80
2012,01,26,07,29,27.40
2012,01,26,07,30,29.00
2012,01,26,07,31,35.40
2012,01,26,07,32,30.60
2012,01,26,07,33,22.50
2012,01,26,07,34,30.60
2012,01,26,07,35,30.60
2012,01,26,07,36,33.80
2012,01,26,07,37,30.60
2012,01,26,07,38,29.00
2012,01,26,07,39,27.40
2012,01,26,07,40,19.30
2012,01,26,07,41,22.50
2012,01,26,07,42,19.30
2012,01,26,07,43,22.50
2012,01,26,07,44,20.90
2012,01,26,07,45,24.20
2012,01,26,07,46,20.90
2012,01,26,07,47,20.90
2012,01,26,07,48,20.90
2012,01,26,07,49,16.10
2012,01,26,07,50,16.10
2012,01,26,07,51,11.30
2012,01,26,07,52,22.50
2012,01,26,07,53,24.20
2012,01,26,07,54,25.70
2012,01,26,07,55,16.10
2012,01,26,07,56,19.30
2012,01,26,07,57,17.70
2012,01,26,07,58,20.90
2012,01,26,07,59,20.90
2012,01,26,08,00,22.50
2012,01,26,08,01,20.90
2012,01,26,08,02,29.00
2012,01,26,08,03,22.50
2012,01,26,08,04,20.90
2012,01,26,08,05,19.30
2012,01,26,08,06,22.50
2012,01,26,08,07,27.40
2012,01,26,08,08,20.90
2012,01,26,08,09,24.20
2012,01,26,08,10,14.50
2012,01,26,08,11,22.50
2012,01,26,08,12,25.70
2012,01,26,08,13,24.20
2012,01,26,08,14,25.70
2012,01,26,08,15,22.50
2012,01,26,08,16,25.70
2012,01,26,08,17,32.20
2012,01,26,08,18,25.70
2012,01,26,08,19,29.00
2012,01,26,08,20,27.40
2012,01,26,08,21,24.20
2012,01,26,08,22,24.20
2012,01,26,08,23,19.30
2012,01,26,08,24,20.90
2012,01,26,08,25,27.40
2012,01,26,08,26,24.20
2012,01,26,08,27,19.30
2012,01,26,08,28,22.50
2012,01,26,08,29,17.70
2012,01,26,08,30,17.70
2012,01,26,08,31,22.50
2012,01,26,08,32,19.30
2012,01,26,08,33,17.70
2012,01,26,08,34,16.10
2012,01,26,08,35,19.30
2012,01,26,08,36,17.70
2012,01,26,08,37,20.90
2012,01,26,08,38,20.90
2012,01,26,08,39,24.20
2012,01,26,08,40,30.60
2012,01,26,08,41,27.40
2012,01,26,08,42,27.40
2012,01,26,08,43,24.20
2012,01,26,08,44,27.40
2012,01,26,08,45,22.50
2012,01,26,08,46,20.90
2012,01,26,08,47,14.50
2012,01,26,08,48,22.50
2012,01,26,08,49,24.20
2012,01,26,08,50,16.10
2012,01,26,08,51,19.30
2012,01,26,08,52,20.90
2012,01,26,08,53,14.50
2012,01,26,08,54,22.50
2012,01,26,08,55,19.30
2012,01,26,08,56,19.30
2012,01,26,08,57,19.30
2012,01,26,08,58,20.90
2012,01,26,08,59,19.30
2012,01,26,09,00,20.90
2012,01,26,09,01,22.50
2012,01,26,09,02,24.20
2012,01,26,09,03,22.50
2012,01,26,09,04,27.40
2012,01,26,09,05,24.20
2012,01,26,09,06,25.70
2012,01,26,09,07,20.90
2012,01,26,09,08,25.70
2012,01,26,09,09,27.40
2012,01,26,09,10,20.90
2012,01,26,09,11,24.20
2012,01,26,09,12,25.70
2012,01,26,09,13,25.70
2012,01,26,09,14,17.70
2012,01,26,09,15,22.50
2012,01,26,09,16,22.50
2012,01,26,09,17,22.50
2012,01,26,09,18,25.70
2012,01,26,09,19,27.40
2012,01,26,09,20,25.70
2012,01,26,09,21,27.40
2012,01,26,09,22,27.40
2012,01,26,09,23,24.20
2012,01,26,09,24,24.20
2012,01,26,09,25,22.50
2012,01,26,09,26,27.40
2012,01,26,09,27,20.90
2012,01,26,09,28,17.70
2012,01,26,09,29,19.30
2012,01,26,09,30,27.40
2012,01,26,09,31,27.40
2012,01,26,09,32,25.70
2012,01,26,09,33,19.30
2012,01,26,09,34,20.90
2012,01,26,09,35,33.80
2012,01,26,09,36,33.80
2012,01,26,09,37,32.20
2012,01,26,09,38,30.60
2012,01,26,09,39,29.00
2012,01,26,09,40,25.70
2012,01,26,09,41,19.30
2012,01,26,09,42,24.20
2012,01,26,09,43,29.00
2012,01,26,09,44,20.90
2012,01,26,09,45,20.90
2012,01,26,09,46,16.10
2012,01,26,09,47,17.70
2012,01,26,09,48,19.30
2012,01,26,09,49,27.40
2012,01,26,09,50,30.60
2012,01,26,09,51,27.40
2012,01,26,09,52,30.60
2012,01,26,09,53,19.30
2012,01,26,09,54,29.00
2012,01,26,09,55,37.00
2012,01,26,09,56,30.60
2012,01,26,09,57,37.00
2012,01,26,09,58,27.40
2012,01,26,09,59,30.60
2012,01,26,10,00,33.80
2012,01,26,10,01,29.00
2012,01,26,10,02,38.60
2012,01,26,10,03,37.00
2012,01,26,10,04,33.80
2012,01,26,10,05,33.80
2012,01,26,10,06,33.80
2012,01,26,10,07,32.20
2012,01,26,10,08,27.40
2012,01,26,10,09,41.80
2012,01,26,10,10,37.00
2012,01,26,10,11,33.80
2012,01,26,10,12,37.00
2012,01,26,10,13,37.00
2012,01,26,10,14,30.60
2012,01,26,10,15,33.80
2012,01,26,10,16,30.60
2012,01,26,10,17,33.80
2012,01,26,10,18,27.40
2012,01,26,10,19,33.80
2012,01,26,10,20,29.00
2012,01,26,10,21,27.40
2012,01,26,10,22,20.90
2012,01,26,10,23,22.50
2012,01,26,10,24,32.20
2012,01,26,10,25,25.70
2012,01,26,10,26,25.70
2012,01,26,10,27,19.30
2012,01,26,10,28,24.20
2012,01,26,10,29,22.50
2012,01,26,10,30,27.40
2012,01,26,10,31,22.50
2012,01,26,10,32,19.30
2012,01,26,10,33,27.40
2012,01,26,10,34,30.60
2012,01,26,10,35,27.40
2012,01,26,10,36,27.40
2012,01,26,10,37,22.50
2012,01,26,10,38,27.40
2012,01,26,10,39,22.50
2012,01,26,10,40,22.50
2012,01,26,10,41,25.70
2012,01,26,10,42,19.30
2012,01,26,10,43,16.10
2012,01,26,10,44,9.60
2012,01,26,10,45,19.30
2012,01,26,10,46,20.90
2012,01,26,10,47,16.10
2012,01,26,10,48,20.90
2012,01,26,10,49,17.70
2012,01,26,10,50,17.70
2012,01,26,10,51,20.90
2012,01,26,10,52,25.70
2012,01,26,10,53,25.70
2012,01,26,10,54,27.40
2012,01,26,10,55,24.20
2012,01,26,10,56,19.30
2012,01,26,10,57,33.80
2012,01,26,10,58,35.40
2012,01,26,10,59,29.00
2012,01,26,11,00,32.20
2012,01,26,11,01,30.60
2012,01,26,11,02,32.20
2012,01,26,11,03,33.80
2012,01,26,11,04,29.00
2012,01,26,11,05,25.70
2012,01,26,11,06,32.20
2012,01,26,11,07,30.60
2012,01,26,11,08,29.00
2012,01,26,11,09,27.40
2012,01,26,11,10,20.90
2012,01,26,11,11,27.40
2012,01,26,11,12,22.50
2012,01,26,11,13,24.20
2012,01,26,11,14,22.50
2012,01,26,11,15,24.20
2012,01,26,11,16,20.90
2012,01,26,11,17,25.70
2012,01,26,11,18,24.20
2012,01,26,11,19,24.20
2012,01,26,11,20,22.50
2012,01,26,11,21,30.60
2012,01,26,11,22,27.40
2012,01,26,11,23,29.00
2012,01,26,11,24,22.50
2012,01,26,11,25,30.60
2012,01,26,11,26,29.00
2012,01,26,11,27,37.00
2012,01,26,11,28,32.20
2012,01,26,11,29,41.80
2012,01,26,11,30,30.60
2012,01,26,11,31,29.00
2012,01,26,11,32,43.50
2012,01,26,11,33,32.20
2012,01,26,11,34,37.00
2012,01,26,11,35,30.60
2012,01,26,11,36,32.20
2012,01,26,11,37,38.60
2012,01,26,11,38,41.80
2012,01,26,11,39,35.40
2012,01,26,11,40,32.20
2012,01,26,11,41,35.40
2012,01,26,11,42,43.50
2012,01,26,11,43,40.20
2012,01,26,11,44,35.40
2012,01,26,11,45,43.50
2012,01,26,11,46,33.80
2012,01,26,11,47,29.00
2012,01,26,11,48,32.20
2012,01,26,11,49,30.60
2012,01,26,11,50,24.20
2012,01,26,11,51,27.40
2012,01,26,11,52,30.60
2012,01,26,11,53,22.50
2012,01,26,11,54,25.70
2012,01,26,11,55,20.90
2012,01,26,11,56,25.70
2012,01,26,11,57,30.60
2012,01,26,11,58,32.20
2012,01,26,11,59,38.60
2012,01,26,12,00,30.60
2012,01,26,12,01,40.20
2012,01,26,12,02,33.80
2012,01,26,12,03,30.60
2012,01,26,12,04,30.60
2012,01,26,12,05,32.20
2012,01,26,12,06,32.20
2012,01,26,12,07,37.00
2012,01,26,12,08,33.80
2012,01,26,12,09,40.20
2012,01,26,12,10,40.20
2012,01,26,12,11,43.50
2012,01,26,12,12,38.60
2012,01,26,12,13,38.60
2012,01,26,12,14,32.20
2012,01,26,12,15,30.60
2012,01,26,12,16,33.80
2012,01,26,12,17,29.00
2012,01,26,12,18,30.60
2012,01,26,12,19,35.40
2012,01,26,12,20,29.00
2012,01,26,12,21,30.60
2012,01,26,12,22,37.00
2012,01,26,12,23,38.60
2012,01,26,12,24,30.60
2012,01,26,12,25,37.00
2012,01,26,12,26,40.20
2012,01,26,12,27,41.80
2012,01,26,12,28,33.80
2012,01,26,12,29,33.80
2012,01,26,12,30,25.70
2012,01,26,12,31,33.80
2012,01,26,12,32,35.40
2012,01,26,12,33,24.20
2012,01,26,12,34,32.20
2012,01,26,12,35,30.60
2012,01,26,12,36,30.60
2012,01,26,12,37,37.00
2012,01,26,12,38,30.60
2012,01,26,12,39,27.40
2012,01,26,12,40,30.60
2012,01,26,12,41,24.20
2012,01,26,12,42,46.70
2012,01,26,12,43,45.10
2012,01,26,12,44,33.80
2012,01,26,12,45,27.40
2012,01,26,12,46,25.70
2012,01,26,12,47,30.60
2012,01,26,12,48,37.00
2012,01,26,12,49,33.80
2012,01,26,12,50,33.80
2012,01,26,12,51,33.80
2012,01,26,12,52,32.20
2012,01,26,12,53,37.00
2012,01,26,12,54,38.60
2012,01,26,12,55,30.60
2012,01,26,12,56,40.20
2012,01,26,12,57,30.60
2012,01,26,12,58,25.70
2012,01,26,12,59,29.00
2012,01,26,13,00,30.60
2012,01,26,13,01,19.30
2012,01,26,13,02,20.90
2012,01,26,13,03,19.30
2012,01,26,13,04,22.50
2012,01,26,13,05,22.50
2012,01,26,13,06,33.80
2012,01,26,13,07,32.20
2012,01,26,13,08,30.60
2012,01,26,13,09,37.00
2012,01,26,13,10,38.60
2012,01,26,13,11,24.20
2012,01,26,13,12,30.60
2012,01,26,13,13,41.80
2012,01,26,13,14,27.40
2012,01,26,13,15,30.60
2012,01,26,13,16,29.00
2012,01,26,13,17,29.00
2012,01,26,13,18,24.20
2012,01,26,13,19,29.00
2012,01,26,13,20,19.30
2012,01,26,13,21,25.70
2012,01,26,13,22,25.70
2012,01,26,13,23,20.90
2012,01,26,13,24,20.90
2012,01,26,13,25,17.70
2012,01,26,13,26,20.90
2012,01,26,13,27,30.60
2012,01,26,13,28,25.70
2012,01,26,13,29,20.90
2012,01,26,13,30,24.20
2012,01,26,13,31,27.40
2012,01,26,13,32,33.80
2012,01,26,13,33,27.40
2012,01,26,13,34,29.00
2012,01,26,13,35,29.00
2012,01,26,13,36,20.90
2012,01,26,13,37,33.80
2012,01,26,13,38,40.20
2012,01,26,13,39,30.60
2012,01,26,13,40,29.00
2012,01,26,13,41,35.40
2012,01,26,13,42,43.50
2012,01,26,13,43,43.50
2012,01,26,13,44,29.00
2012,01,26,13,45,24.20
2012,01,26,13,46,24.20
2012,01,26,13,47,19.30
2012,01,26,13,48,25.70
2012,01,26,13,49,29.00
2012,01,26,13,50,24.20
2012,01,26,13,51,29.00
2012,01,26,13,52,27.40
2012,01,26,13,53,20.90
2012,01,26,13,54,29.00
2012,01,26,13,55,30.60
2012,01,26,13,56,30.60
2012,01,26,13,57,30.60
2012,01,26,13,58,32.20
2012,01,26,13,59,41.80
2012,01,26,14,00,30.60
2012,01,26,14,01,30.60
2012,01,26,14,02,27.40
2012,01,26,14,03,24.20
2012,01,26,14,04,25.70
2012,01,26,14,05,30.60
2012,01,26,14,06,25.70
2012,01,26,14,07,30.60
2012,01,26,14,08,35.40
2012,01,26,14,09,43.50
2012,01,26,14,10,25.70
2012,01,26,14,11,27.40
2012,01,26,14,12,29.00
2012,01,26,14,13,33.80
2012,01,26,14,14,33.80
2012,01,26,14,15,27.40
2012,01,26,14,16,25.70
2012,01,26,14,17,24.20
2012,01,26,14,18,19.30
2012,01,26,14,19,37.00
2012,01,26,14,20,27.40
2012,01,26,14,21,25.70
2012,01,26,14,22,29.00
2012,01,26,14,23,30.60
2012,01,26,14,24,24.20
2012,01,26,14,25,20.90
2012,01,26,14,26,17.70
2012,01,26,14,27,14.50
2012,01,26,14,28,19.30
2012,01,26,14,29,17.70
2012,01,26,14,30,25.70
2012,01,26,14,31,25.70
2012,01,26,14,32,24.20
2012,01,26,14,33,22.50
2012,01,26,14,34,16.10
2012,01,26,14,35,11.30
2012,01,26,14,36,17.70
2012,01,26,14,37,24.20
2012,01,26,14,38,27.40
2012,01,26,14,39,22.50
2012,01,26,14,40,22.50
2012,01,26,14,41,19.30
2012,01,26,14,42,20.90
2012,01,26,14,43,25.70
2012,01,26,14,44,11.30
2012,01,26,14,45,19.30
2012,01,26,14,46,20.90
2012,01,26,14,47,16.10
2012,01,26,14,48,11.30
2012,01,26,14,49,22.50
2012,01,26,14,50,17.70
2012,01,26,14,51,22.50
2012,01,26,14,52,27.40
2012,01,26,14,53,30.60
2012,01,26,14,54,29.00
2012,01,26,14,55,27.40
2012,01,26,14,56,25.70
2012,01,26,14,57,20.90
2012,01,26,14,58,19.30
2012,01,26,14,59,25.70
2012,01,26,15,00,19.30
2012,01,26,15,01,35.40
2012,01,26,15,02,29.00
2012,01,26,15,03,32.20
2012,01,26,15,04,25.70
2012,01,26,15,05,25.70
2012,01,26,15,06,20.90
2012,01,26,15,07,20.90
2012,01,26,15,08,27.40
2012,01,26,15,09,27.40
2012,01,26,15,10,22.50
2012,01,26,15,11,20.90
2012,01,26,15,12,20.90
2012,01,26,15,13,30.60
2012,01,26,15,14,27.40
2012,01,26,15,15,25.70
2012,01,26,15,16,32.20
2012,01,26,15,17,29.00
2012,01,26,15,18,25.70
2012,01,26,15,19,30.60
2012,01,26,15,20,27.40
2012,01,26,15,21,24.20
2012,01,26,15,22,30.60
2012,01,26,15,23,24.20
2012,01,26,15,24,22.50
2012,01,26,15,25,25.70
2012,01,26,15,26,20.90
2012,01,26,15,27,27.40
2012,01,26,15,28,20.90
2012,01,26,15,29,11.30
2012,01,26,15,30,17.70
2012,01,26,15,31,14.50
2012,01,26,15,32,14.50
2012,01,26,15,33,19.30
2012,01,26,15,34,24.20
2012,01,26,15,35,12.90
2012,01,26,15,36,22.50
2012,01,26,15,37,30.60
2012,01,26,15,38,27.40
2012,01,26,15,39,22.50
2012,01,26,15,40,20.90
2012,01,26,15,41,24.20
2012,01,26,15,42,14.50
2012,01,26,15,43,16.10
2012,01,26,15,44,25.70
2012,01,26,15,45,25.70
2012,01,26,15,46,19.30
2012,01,26,15,47,17.70
2012,01,26,15,48,20.90
2012,01,26,15,49,16.10
2012,01,26,15,50,22.50
2012,01,26,15,51,22.50
2012,01,26,15,52,22.50
2012,01,26,15,53,20.90
2012,01,26,15,54,29.00
2012,01,26,15,55,25.70
2012,01,26,15,56,20.90
2012,01,26,15,57,17.70
2012,01,26,15,58,25.70
2012,01,26,15,59,25.70
2012,01,26,16,00,22.50
2012,01,26,16,01,24.20
2012,01,26,16,02,16.10
2012,01,26,16,03,17.70
2012,01,26,16,04,22.50
2012,01,26,16,05,19.30
2012,01,26,16,06,27.40
2012,01,26,16,07,27.40
2012,01,26,16,08,22.50
2012,01,26,16,09,14.50
2012,01,26,16,10,17.70
2012,01,26,16,11,17.70
2012,01,26,16,12,16.10
2012,01,26,16,13,9.60
2012,01,26,16,14,20.90
2012,01,26,16,15,17.70
2012,01,26,16,16,22.50
2012,01,26,16,17,17.70
2012,01,26,16,18,17.70
2012,01,26,16,19,11.30
2012,01,26,16,20,14.50
2012,01,26,16,21,11.30
2012,01,26,16,22,9.60
2012,01,26,16,23,14.50
2012,01,26,16,24,17.70
2012,01,26,16,25,16.10
2012,01,26,16,26,9.60
2012,01,26,16,27,17.70
2012,01,26,16,28,17.70
2012,01,26,16,29,17.70
2012,01,26,16,30,17.70
2012,01,26,16,31,17.70
2012,01,26,16,32,19.30
2012,01,26,16,33,14.50
2012,01,26,16,34,8.10
2012,01,26,16,35,8.10
2012,01,26,16,36,6.40
2012,01,26,16,37,4.80
2012,01,26,16,38,4.80
2012,01,26,16,39,11.30
2012,01,26,16,40,11.30
2012,01,26,16,41,4.80
2012,01,26,16,42,6.40
2012,01,26,16,43,4.80
2012,01,26,16,44,6.40
2012,01,26,16,45,4.80
2012,01,26,16,46,4.80
2012,01,26,16,47,4.80
2012,01,26,16,48,1.60
2012,01,26,16,49,6.40
2012,01,26,16,50,11.30
2012,01,26,16,51,9.60
2012,01,26,16,52,9.60
2012,01,26,16,53,16.10
2012,01,26,16,54,6.40
2012,01,26,16,55,6.40
2012,01,26,16,56,11.30
2012,01,26,16,57,19.30
2012,01,26,16,58,14.50
2012,01,26,16,59,9.60
2012,01,26,17,00,17.70
2012,01,26,17,01,17.70
2012,01,26,17,02,6.40
2012,01,26,17,03,6.40
2012,01,26,17,04,9.60
2012,01,26,17,05,6.40
2012,01,26,17,06,11.30
2012,01,26,17,07,14.50
2012,01,26,17,08,12.90
2012,01,26,17,09,14.50
2012,01,26,17,10,17.70
2012,01,26,17,11,12.90
2012,01,26,17,12,14.50
2012,01,26,17,13,16.10
2012,01,26,17,14,17.70
2012,01,26,17,15,12.90
2012,01,26,17,16,19.30
2012,01,26,17,17,17.70
2012,01,26,17,18,11.30
2012,01,26,17,19,9.60
2012,01,26,17,20,17.70
2012,01,26,17,21,16.10
2012,01,26,17,22,12.90
2012,01,26,17,23,17.70
2012,01,26,17,24,16.10
2012,01,26,17,25,11.30
2012,01,26,17,26,17.70
2012,01,26,17,27,11.30
2012,01,26,17,28,16.10
2012,01,26,17,29,22.50